When you browse on this site, cookies collect data to enhance your experience and personalize the content and advertising you see.
Visit our Privacy Policy to learn more. By continuing to use the site, you agree to this use of cookies and data.
  • In Romania
  • List of Countries
  • For 7 days
  • Water Temperature
  • Satellite Maps
  • Weather Map
  • Weather Widgets
  • user-avatar
    Login

    Hourly Weather Eruslanovka

    Today, 23 April, Tuesday

    Time Temperature Precipitation Wind Pressure Humidity
    00:00 +3°C° 0 mm 3 mps 737 mmHg 85%
    01:00 +3°C° 0 mm 3 mps 737 mmHg 86%
    02:00 +3°C° 0 mm 2 mps 737 mmHg 87%
    03:00 +3°C° 0 mm 2 mps 737 mmHg 88%
    04:00 +3°C° 0 mm 2 mps 737 mmHg 86%
    05:00 +3°C° 0 mm 2 mps 738 mmHg 85%
    06:00 +4°C° 0 mm 1 mps 738 mmHg 83%
    07:00 +5°C° 0 mm 2 mps 738 mmHg 71%
    08:00 +7°C° 0 mm 3 mps 738 mmHg 59%
    09:00 +10°C° 0 mm 3 mps 738 mmHg 47%
    10:00 +11°C° 0 mm 4 mps 738 mmHg 44%
    11:00 +12°C° 0 mm 4 mps 739 mmHg 41%
    12:00 +13°C° 0 mm 4 mps 739 mmHg 38%
    13:00 +13°C° 0 mm 4 mps 739 mmHg 37%
    14:00 +14°C° 0 mm 4 mps 739 mmHg 37%
    15:00 +14°C° 0 mm 4 mps 739 mmHg 37%
    16:00 +14°C° 0 mm 3 mps 739 mmHg 41%
    17:00 +14°C° 0 mm 2 mps 739 mmHg 44%
    18:00 +13°C° 0 mm 2 mps 739 mmHg 48%
    19:00 +12°C° 0 mm 2 mps 740 mmHg 50%
    20:00 +10°C° 0 mm 1 mps 740 mmHg 52%
    21:00 +9°C° 0 mm 1 mps 740 mmHg 54%
    22:00 +9°C° 0 mm 1 mps 740 mmHg 56%
    23:00 +8°C° 0 mm 1 mps 740 mmHg 57%

    Tomorrow, 24 April, Wednesday

    Time Temperature Precipitation Wind Pressure Humidity
    00:00 +7°C° 0 mm 2 mps 740 mmHg 59%
    01:00 +7°C° 0 mm 2 mps 740 mmHg 60%
    02:00 +6°C° 0 mm 2 mps 741 mmHg 60%
    03:00 +6°C° 0 mm 2 mps 741 mmHg 61%
    04:00 +6°C° 0 mm 2 mps 741 mmHg 61%
    05:00 +6°C° 0 mm 2 mps 741 mmHg 61%
    06:00 +6°C° 0 mm 2 mps 741 mmHg 61%
    07:00 +8°C° 0 mm 2 mps 741 mmHg 56%
    08:00 +11°C° 0 mm 3 mps 741 mmHg 50%
    09:00 +13°C° 0 mm 3 mps 740 mmHg 45%
    10:00 +14°C° 0 mm 3 mps 740 mmHg 43%
    11:00 +16°C° 0 mm 3 mps 740 mmHg 41%
    12:00 +17°C° 0 mm 3 mps 740 mmHg 40%
    13:00 +17°C° 0 mm 4 mps 739 mmHg 41%
    14:00 +17°C° 0 mm 4 mps 739 mmHg 42%
    15:00 +17°C° 0 mm 4 mps 739 mmHg 44%
    16:00 +15°C° 0 mm 4 mps 739 mmHg 48%
    17:00 +16°C° 0 mm 3 mps 739 mmHg 53%
    18:00 +14°C° 0 mm 3 mps 739 mmHg 57%
    19:00 +13°C° 0 mm 3 mps 739 mmHg 61%
    20:00 +12°C° 0 mm 2 mps 740 mmHg 65%
    21:00 +10°C° 0 mm 2 mps 740 mmHg 69%
    22:00 +10°C° 0 mm 2 mps 740 mmHg 69%
    23:00 +9°C° 0 mm 2 mps 740 mmHg 69%

    Day after tomorrow, 25 April, Thursday

    Time Temperature Precipitation Wind Pressure Humidity
    00:00 +9°C° 0 mm 2 mps 740 mmHg 69%
    01:00 +9°C° 0 mm 2 mps 740 mmHg 70%
    02:00 +8°C° 0 mm 3 mps 740 mmHg 70%
    03:00 +8°C° 0 mm 3 mps 739 mmHg 70%
    04:00 +8°C° 0 mm 3 mps 739 mmHg 69%
    05:00 +9°C° 0 mm 3 mps 740 mmHg 67%
    06:00 +9°C° 0 mm 3 mps 740 mmHg 66%
    07:00 +10°C° 0 mm 3 mps 739 mmHg 63%
    08:00 +12°C° 0 mm 3 mps 739 mmHg 60%
    09:00 +13°C° 0 mm 4 mps 739 mmHg 58%
    10:00 +16°C° 0 mm 3 mps 739 mmHg 55%
    11:00 +17°C° 0 mm 3 mps 739 mmHg 52%
    12:00 +18°C° 0 mm 3 mps 739 mmHg 49%
    13:00 +19°C° 0.1 mm 3 mps 739 mmHg 49%
    14:00 +19°C° 0.1 mm 3 mps 738 mmHg 49%
    15:00 +19°C° 0.1 mm 3 mps 738 mmHg 49%
    16:00 +18°C° 0.1 mm 3 mps 738 mmHg 53%
    17:00 +18°C° 0.1 mm 2 mps 738 mmHg 57%
    18:00 +17°C° 0.1 mm 2 mps 738 mmHg 62%
    19:00 +16°C° 0 mm 2 mps 738 mmHg 65%
    20:00 +14°C° 0 mm 1 mps 739 mmHg 69%
    21:00 +13°C° 0 mm 1 mps 739 mmHg 73%
    22:00 +12°C° 0 mm 1 mps 739 mmHg 74%
    23:00 +12°C° 0 mm 1 mps 738 mmHg 75%

    26 April, Friday

    Time Temperature Precipitation Wind Pressure Humidity
    00:00 +11°C° 0 mm 1 mps 738 mmHg 76%
    01:00 +11°C° 0 mm 1 mps 738 mmHg 76%
    02:00 +11°C° 0 mm 1 mps 738 mmHg 76%
    03:00 +10°C° 0 mm 1 mps 738 mmHg 76%
    04:00 +10°C° 0 mm 1 mps 738 mmHg 76%
    05:00 +11°C° 0 mm 1 mps 738 mmHg 75%
    06:00 +11°C° 0 mm 1 mps 738 mmHg 74%
    07:00 +13°C° 0 mm 1 mps 738 mmHg 68%
    08:00 +15°C° 0 mm 2 mps 737 mmHg 62%
    09:00 +17°C° 0 mm 2 mps 737 mmHg 55%
    10:00 +18°C° 0 mm 3 mps 737 mmHg 52%
    11:00 +19°C° 0 mm 4 mps 737 mmHg 49%
    12:00 +20°C° 0 mm 5 mps 737 mmHg 45%
    13:00 +20°C° 0 mm 5 mps 736 mmHg 45%
    14:00 +21°C° 0 mm 5 mps 736 mmHg 45%
    15:00 +21°C° 0 mm 5 mps 736 mmHg 45%
    16:00 +20°C° 0 mm 5 mps 736 mmHg 49%
    17:00 +19°C° 0 mm 4 mps 736 mmHg 53%
    18:00 +18°C° 0 mm 4 mps 736 mmHg 57%
    19:00 +17°C° 0 mm 3 mps 736 mmHg 61%
    20:00 +14°C° 0 mm 3 mps 736 mmHg 65%
    21:00 +14°C° 0 mm 2 mps 736 mmHg 68%
    22:00 +13°C° 0 mm 2 mps 736 mmHg 69%
    23:00 +12°C° 0 mm 2 mps 736 mmHg 70%

    27 April, Saturday

    Time Temperature Precipitation Wind Pressure Humidity
    00:00 +12°C° 0 mm 2 mps 736 mmHg 70%
    01:00 +12°C° 0 mm 2 mps 736 mmHg 71%
    02:00 +10°C° 0 mm 2 mps 736 mmHg 71%
    03:00 +10°C° 0 mm 2 mps 735 mmHg 71%
    04:00 +10°C° 0 mm 2 mps 735 mmHg 71%
    05:00 +10°C° 0 mm 2 mps 735 mmHg 71%
    06:00 +10°C° 0 mm 2 mps 735 mmHg 71%
    07:00 +12°C° 0 mm 3 mps 735 mmHg 62%
    08:00 +15°C° 0 mm 4 mps 735 mmHg 54%
    09:00 +17°C° 0 mm 5 mps 735 mmHg 45%
    10:00 +19°C° 0 mm 5 mps 735 mmHg 44%
    11:00 +19°C° 0 mm 6 mps 735 mmHg 43%
    12:00 +20°C° 0 mm 6 mps 734 mmHg 43%
    13:00 +20°C° 0 mm 6 mps 734 mmHg 43%
    14:00 +21°C° 0 mm 6 mps 734 mmHg 44%
    15:00 +21°C° 0 mm 6 mps 733 mmHg 45%
    16:00 +20°C° 0 mm 5 mps 733 mmHg 49%
    17:00 +20°C° 0 mm 4 mps 733 mmHg 54%
    18:00 +19°C° 0 mm 4 mps 733 mmHg 59%
    19:00 +17°C° 0 mm 3 mps 733 mmHg 62%
    20:00 +14°C° 0 mm 3 mps 734 mmHg 66%
    21:00 +13°C° 0 mm 3 mps 734 mmHg 70%
    22:00 +13°C° 0 mm 2 mps 734 mmHg 70%
    23:00 +12°C° 0 mm 2 mps 733 mmHg 70%

    28 April, Sunday

    Time Temperature Precipitation Wind Pressure Humidity
    00:00 +10°C° 0 mm 2 mps 733 mmHg 70%
    01:00 +11°C° 0 mm 1 mps 733 mmHg 70%
    02:00 +10°C° 0 mm 1 mps 733 mmHg 70%
    03:00 +10°C° 0 mm 1 mps 733 mmHg 70%
    04:00 +10°C° 0 mm 1 mps 733 mmHg 70%
    05:00 +9°C° 0 mm 0 mps 733 mmHg 70%
    06:00 +9°C° 0 mm 0 mps 733 mmHg 69%
    07:00 +13°C° 0 mm 1 mps 733 mmHg 64%
    08:00 +15°C° 0 mm 1 mps 733 mmHg 58%
    09:00 +18°C° 0 mm 1 mps 733 mmHg 53%
    10:00 +19°C° 0 mm 1 mps 732 mmHg 50%
    11:00 +20°C° 0 mm 2 mps 732 mmHg 48%
    12:00 +21°C° 0 mm 2 mps 732 mmHg 46%
    13:00 +21°C° 0 mm 2 mps 732 mmHg 45%
    14:00 +23°C° 0 mm 2 mps 732 mmHg 44%
    15:00 +23°C° 0 mm 2 mps 731 mmHg 43%
    16:00 +23°C° 0 mm 2 mps 732 mmHg 47%
    17:00 +21°C° 0 mm 2 mps 732 mmHg 52%
    18:00 +20°C° 0 mm 2 mps 732 mmHg 56%
    19:00 +19°C° 0 mm 1 mps 732 mmHg 61%
    20:00 +18°C° 0 mm 1 mps 732 mmHg 67%
    21:00 +15°C° 0 mm 1 mps 732 mmHg 72%
    22:00 +14°C° 0 mm 1 mps 732 mmHg 74%
    23:00 +14°C° 0 mm 1 mps 732 mmHg 75%
    Show more